EW0591 Weather Reports


Display with metric or nautical units.
time (UTC)temp
F
wind
direction
speed
MPH
gust
MPH
rain 1hr
in
rain 24hr
in
rain mn
in
humidity
%
barometer
mb
20260506012112 60 87 1.0 2.0 0.00 0.00 0.00 41 1022.5
20260506011610 60 338 3.0 5.0 0.00 0.00 0.00 40 1022.6
20260506011106 60 331 3.0 5.0 0.00 0.00 0.00 38 1022.6
20260506010600 61 295 9.0 15.0 0.00 0.00 0.00 30 1022.6
20260506010056 60 349 9.0 11.0 0.00 0.00 0.00 29 1022.3
20260506005553 60 326 8.0 10.0 0.00 0.00 0.00 30 1022.2
20260506005049 60 26 9.0 10.0 0.00 0.00 0.00 29 1022.2
20260506004547 60 349 15.0 20.0 0.00 0.00 0.00 29 1022.2
20260506004043 61 336 13.0 15.0 0.00 0.00 0.00 29 1022.1
20260506003540 61 334 11.0 13.0 0.00 0.00 0.00 30 1022.3
20260506003036 61 11 5.0 7.0 0.00 0.00 0.00 30 1022.1
20260506002532 61 359 11.0 11.0 0.00 0.00 0.00 30 1022.2
20260506002028 61 348 11.0 13.0 0.00 0.00 0.00 30 1022.0
20260506001524 61 2 10.0 13.0 0.00 0.00 0.00 29 1022.0
20260506001022 62 353 11.0 14.0 0.00 0.00 0.00 29 1022.0
20260506000519 61 334 15.0 16.0 0.00 0.00 0.00 28 1022.2
20260506000016 61 345 8.0 10.0 0.00 0.00 0.00 30 1022.0
20260505235514 62 21 3.0 6.0 0.00 0.00 0.00 30 1022.0
20260505235011 62 328 15.0 18.0 0.00 0.00 0.00 28 1022.0
20260505234508 62 358 9.0 14.0 0.00 0.00 0.00 30 1021.6
20260505234005 62 334 15.0 18.0 0.00 0.00 0.00 29 1021.7
20260505233502 62 58 12.0 15.0 0.00 0.00 0.00 27 1021.7
20260505232959 62 340 15.0 17.0 0.00 0.00 0.00 29 1021.8
20260505232457 62 316 6.0 9.0 0.00 0.00 0.00 31 1022.0
20260505231954 62 13 11.0 16.0 0.00 0.00 0.00 28 1021.3
20260505231451 63 328 4.0 5.0 0.00 0.00 0.00 31 1021.8
20260505230950 62 4 13.0 16.0 0.00 0.00 0.00 29 1021.7
20260505230447 62 338 11.0 15.0 0.00 0.00 0.00 30 1021.7
20260505225943 63 325 10.0 15.0 0.00 0.00 0.00 31 1021.6
20260505225440 63 340 11.0 13.0 0.00 0.00 0.00 31 1021.6
20260505224936 63 359 14.0 17.0 0.00 0.00 0.00 30 1021.5
20260505224433 63 327 12.0 14.0 0.00 0.00 0.00 32 1021.5
20260505223930 63 320 10.0 15.0 0.00 0.00 0.00 34 1021.8
20260505223427 63 342 10.0 13.0 0.00 0.00 0.00 32 1021.7
20260505222924 62 3 7.0 9.0 0.00 0.00 0.00 31 1021.7
20260505222420 62 2 2.0 3.0 0.00 0.00 0.00 36 1021.7
20260505221916 62 327 10.0 13.0 0.00 0.00 0.00 33 1021.6
20260505221414 62 333 13.0 15.0 0.00 0.00 0.00 33 1021.7
20260505220910 62 341 7.0 10.0 0.00 0.00 0.00 32 1021.9
20260505220407 63 347 13.0 15.0 0.00 0.00 0.00 33 1021.6
20260505215905 64 6 4.0 7.0 0.00 0.00 0.00 34 1021.5
20260505215403 64 46 9.0 11.0 0.00 0.00 0.00 35 1021.6
20260505214901 63 352 15.0 17.0 0.00 0.00 0.00 34 1021.7
20260505214358 64 338 18.0 21.0 0.00 0.00 0.00 32 1021.6
20260505213855 64 344 16.0 20.0 0.00 0.00 0.00 33 1021.7
20260505213353 63 346 11.0 14.0 0.00 0.00 0.00 31 1021.7
20260505212849 64 344 10.0 14.0 0.00 0.00 0.00 32 1021.9
20260505212346 64 316 9.0 10.0 0.00 0.00 0.00 33 1021.6
20260505211842 63 347 5.0 7.0 0.00 0.00 0.00 34 1021.7
20260505211340 63 352 11.0 15.0 0.00 0.00 0.00 31 1021.6
20260505210836 64 339 6.0 9.0 0.00 0.00 0.00 33 1021.8
20260505210333 64 339 9.0 11.0 0.00 0.00 0.00 32 1021.9
20260505205830 64 353 5.0 8.0 0.00 0.00 0.00 32 1021.8
20260505205328 65 340 12.0 14.0 0.00 0.00 0.00 31 1021.9
20260505204825 64 102 3.0 5.0 0.00 0.00 0.00 35 1021.9
20260505204323 62 323 7.0 9.0 0.00 0.00 0.00 33 1021.9
20260505203820 62 350 8.0 13.0 0.00 0.00 0.00 35 1021.9
20260505203316 62 320 5.0 8.0 0.00 0.00 0.00 32 1022.1
20260505202812 63 6 9.0 10.0 0.00 0.00 0.00 35 1021.9
20260505202309 62 335 7.0 8.0 0.00 0.00 0.00 32 1022.0
20260505201805 62 339 10.0 11.0 0.00 0.00 0.00 31 1022.1
20260505201303 64 337 6.0 8.0 0.00 0.00 0.00 33 1021.8
20260505200801 62 27 9.0 13.0 0.00 0.00 0.00 33 1022.2
20260505200258 63 346 8.0 10.0 0.00 0.00 0.00 32 1021.9
20260505195753 62 32 5.0 8.0 0.00 0.00 0.00 32 1022.1
20260505195251 61 339 9.0 10.0 0.00 0.00 0.00 33 1022.3
20260505194748 62 329 14.0 16.0 0.00 0.00 0.00 31 1021.9
20260505194244 62 341 9.0 9.0 0.00 0.00 0.00 31 1022.3
20260505193740 62 330 8.0 10.0 0.00 0.00 0.00 33 1022.1
20260505193238 62 21 4.0 7.0 0.00 0.00 0.00 32 1022.3
20260505192736 62 333 13.0 15.0 0.00 0.00 0.00 30 1022.1
20260505192233 61 335 10.0 13.0 0.00 0.00 0.00 31 1022.5
20260505191731 61 336 11.0 16.0 0.00 0.00 0.00 34 1022.3
20260505191230 61 337 8.0 10.0 0.00 0.00 0.00 31 1022.6
20260505190725 61 340 9.0 14.0 0.00 0.00 0.00 32 1022.6
20260505190225 62 332 11.0 14.0 0.00 0.00 0.00 32 1022.3
20260505185722 61 6 7.0 8.0 0.00 0.00 0.00 32 1022.5
20260505185219 60 342 8.0 10.0 0.00 0.00 0.00 28 1022.1
20260505184715 61 331 10.0 13.0 0.00 0.00 0.00 31 1022.7
20260505184212 60 348 12.0 15.0 0.00 0.00 0.00 31 1022.7
20260505183709 61 335 3.0 3.0 0.00 0.00 0.00 31 1022.6
20260505183207 61 355 8.0 10.0 0.00 0.00 0.00 34 1022.7
20260505182702 60 334 12.0 14.0 0.00 0.00 0.00 32 1022.5
20260505182200 60 332 9.0 10.0 0.00 0.00 0.00 34 1022.7
20260505181656 60 343 7.0 9.0 0.00 0.00 0.00 33 1022.8
20260505181154 60 327 9.0 11.0 0.00 0.00 0.00 34 1022.9
20260505180650 60 345 7.0 8.0 0.00 0.00 0.00 38 1023.0
20260505180147 60 329 7.0 8.0 0.00 0.00 0.00 36 1022.8
20260505175643 60 321 9.0 10.0 0.00 0.00 0.00 35 1023.0
20260505175139 60 63 2.0 2.0 0.00 0.00 0.00 40 1022.8
20260505174636 60 345 6.0 8.0 0.00 0.00 0.00 36 1022.9
20260505174132 59 348 6.0 8.0 0.00 0.00 0.00 39 1022.9
20260505173629 59 332 5.0 6.0 0.00 0.00 0.00 36 1023.2
20260505173126 59 330 3.0 5.0 0.00 0.00 0.00 36 1023.0
20260505172624 59 320 6.0 8.0 0.00 0.00 0.00 35 1023.2
20260505172120 58 7 4.0 5.0 0.00 0.00 0.00 36 1023.1
20260505171615 58 324 6.0 7.0 0.00 0.00 0.00 36 1023.3
20260505171112 57 314 1.0 1.0 0.00 0.00 0.00 39 1023.2
20260505170609 57 280 5.0 6.0 0.00 0.00 0.00 37 1023.1
20260505170105 57 353 3.0 3.0 0.00 0.00 0.00 37 1023.2
20260505165600 58 0 2.0 2.0 0.00 0.00 0.00 38 1023.2
20260505165056 56 325 1.0 3.0 0.00 0.00 0.00 40 1023.1
20260505164552 56 320 3.0 3.0 0.00 0.00 0.00 38 1023.4
20260505164050 56 320 5.0 6.0 0.00 0.00 0.00 41 1023.4
20260505163549 56 322 4.0 6.0 0.00 0.00 0.00 41 1023.6
20260505163045 56 334 8.0 9.0 0.00 0.00 0.00 40 1023.6
20260505162538 55 347 3.0 3.0 0.00 0.00 0.00 42 1023.7
20260505162035 55 341 6.0 8.0 0.00 0.00 0.00 45 1023.8
20260505161532 55 330 8.0 9.0 0.00 0.00 0.00 41 1023.6
20260505161029 55 332 6.0 8.0 0.00 0.00 0.00 44 1023.4
20260505160527 55 347 6.0 7.0 0.00 0.00 0.00 44 1023.6
20260505153003 52 1 7.0 8.0 0.00 0.00 0.00 50 1023.8
20260505152501 51 12 3.0 3.0 0.00 0.00 0.00 52 1024.0
20260505151956 51 345 7.0 8.0 0.00 0.00 0.00 53 1023.7
20260505151451 50 351 6.0 7.0 0.00 0.00 0.00 53 1023.9
20260505150949 50 346 4.0 5.0 0.00 0.00 0.00 57 1023.6
20260505150445 50 341 4.0 7.0 0.00 0.00 0.00 55 1023.8
20260505140416 43 341 1.0 1.0 0.00 0.00 0.00 69 1023.6
20260505124829 32 236 0.0 0.0 0.00 0.00 0.00 91 1023.3
20260505124326 32 215 0.0 0.0 0.00 0.00 0.00 91 1023.1
20260505123822 31 217 0.0 0.0 0.00 0.00 0.00 91 1022.9
20260505123319 32 217 0.0 0.0 0.00 0.00 0.00 91 1023.1
20260505122815 32 245 0.0 0.0 0.00 0.00 0.00 91 1022.9
20260505122312 31 248 0.0 0.0 0.00 0.00 0.00 91 1023.1
20260505121809 31 248 0.0 0.0 0.00 0.00 0.00 91 1023.0
20260505121306 31 248 0.0 0.0 0.00 0.00 0.00 90 1022.9
20260505120802 31 249 0.0 0.0 0.00 0.00 0.00 90 1022.9
20260505120258 32 249 0.0 0.0 0.00 0.00 0.00 90 1023.0
20260505115757 32 247 0.0 0.0 0.00 0.00 0.00 90 1023.1
20260505115254 32 249 0.0 0.0 0.00 0.00 0.00 89 1022.8
20260505114752 32 251 0.0 0.0 0.00 0.00 0.00 89 1022.9
20260505114248 32 227 0.0 0.0 0.00 0.00 0.00 88 1023.1
20260505113745 32 226 0.0 0.0 0.00 0.00 0.00 88 1023.0
20260505113241 31 226 0.0 0.0 0.00 0.00 0.00 88 1022.8
20260505112737 31 229 0.0 0.0 0.00 0.00 0.00 88 1022.9
20260505112235 32 263 0.0 0.0 0.00 0.00 0.00 87 1022.9
20260505111735 32 329 2.0 2.0 0.00 0.00 0.00 87 1023.0
20260505111231 33 323 2.0 2.0 0.00 0.00 0.00 87 1022.8
20260505110727 33 269 0.0 0.0 0.00 0.00 0.00 87 1022.9
20260505110225 33 248 0.0 0.0 0.00 0.00 0.00 86 1022.7
20260505102200 34 286 0.0 0.0 0.00 0.00 0.00 83 1022.9
20260505101659 35 278 0.0 0.0 0.00 0.00 0.00 83 1022.9
20260505101154 35 245 0.0 0.0 0.00 0.00 0.00 83 1022.9
20260505100651 35 263 0.0 0.0 0.00 0.00 0.00 82 1022.8
20260505100148 35 244 0.0 0.0 0.00 0.00 0.00 81 1022.7
20260505095644 35 243 0.0 0.0 0.00 0.00 0.00 81 1022.8
20260505095142 37 255 0.0 0.0 0.00 0.00 0.00 80 1022.7
20260505094637 38 293 0.0 0.0 0.00 0.00 0.00 79 1022.6
20260505094134 38 158 0.0 0.0 0.00 0.00 0.00 79 1022.5
20260505093630 38 180 0.0 1.0 0.00 0.00 0.00 77 1022.8
20260505093128 37 227 0.0 0.0 0.00 0.00 0.00 77 1022.5
20260505092624 37 166 0.0 0.0 0.00 0.00 0.00 78 1022.7
20260505092123 36 245 0.0 0.0 0.00 0.00 0.00 79 1022.6
20260505091619 37 292 0.0 0.0 0.00 0.00 0.00 77 1022.5
20260505091118 38 222 0.0 0.0 0.00 0.00 0.00 75 1022.5
20260505090615 38 287 0.0 0.0 0.00 0.00 0.00 76 1022.6
20260505090113 39 345 2.0 2.0 0.00 0.00 0.00 75 1022.6
20260505085610 39 267 0.0 0.0 0.00 0.00 0.00 77 1022.6
20260505085109 39 245 0.0 0.0 0.00 0.00 0.00 77 1022.7
20260505084606 39 214 0.0 0.0 0.00 0.00 0.00 75 1022.2
20260505084104 39 208 0.0 0.0 0.00 0.00 0.00 74 1022.6
20260505083601 39 221 0.0 0.0 0.00 0.00 0.00 74 1022.5
20260505083058 42 328 3.0 3.0 0.00 0.00 0.00 70 1022.8
20260505082553 42 270 0.0 0.0 0.00 0.00 0.00 73 1022.6
20260505082051 42 206 0.0 0.0 0.00 0.00 0.00 72 1022.7
20260505081547 43 176 0.0 0.0 0.00 0.00 0.00 69 1022.8
20260505081044 42 170 1.0 1.0 0.00 0.00 0.00 68 1022.8
20260505080540 43 223 1.0 2.0 0.00 0.00 0.00 65 1022.8
20260505080037 45 201 0.0 1.0 0.00 0.00 0.00 66 1022.8
20260505075533 45 46 1.0 2.0 0.00 0.00 0.00 62 1022.8
20260505075030 44 261 0.0 0.0 0.00 0.00 0.00 61 1022.6
20260505074527 46 235 0.0 0.0 0.00 0.00 0.00 60 1022.5
20260505074024 47 92 1.0 1.0 0.00 0.00 0.00 60 1022.5
20260505073522 48 276 2.0 2.0 0.00 0.00 0.00 58 1022.8
20260505073020 48 237 0.0 0.0 0.00 0.00 0.00 57 1022.8
20260505072515 48 258 0.0 0.0 0.00 0.00 0.00 54 1022.8
20260505072012 48 189 0.0 1.0 0.00 0.00 0.00 57 1022.9
20260505071507 50 319 1.0 1.0 0.00 0.00 0.00 55 1022.7
20260505071006 51 338 2.0 2.0 0.00 0.00 0.00 48 1022.9
20260505070503 51 333 3.0 5.0 0.00 0.00 0.00 49 1023.0
20260505065958 52 47 1.0 1.0 0.00 0.00 0.00 48 1022.8
20260505065455 49 60 2.0 3.0 0.00 0.00 0.00 52 1022.8
20260505064951 47 347 3.0 5.0 0.00 0.00 0.00 57 1022.7
20260505064448 46 332 1.0 2.0 0.00 0.00 0.00 60 1022.6
20260505063947 46 60 1.0 1.0 0.00 0.00 0.00 59 1022.2
20260505063443 47 200 0.0 0.0 0.00 0.00 0.00 62 1022.3
20260505062939 48 191 1.0 1.0 0.00 0.00 0.00 59 1022.3
20260505062436 49 177 1.0 1.0 0.00 0.00 0.00 58 1022.2
20260505061933 49 177 2.0 2.0 0.00 0.00 0.00 58 1022.3
20260505061432 50 120 1.0 2.0 0.00 0.00 0.00 52 1022.5
20260505060929 50 193 1.0 1.0 0.00 0.00 0.00 54 1022.2
20260505060426 50 221 0.0 0.0 0.00 0.00 0.00 54 1022.0
20260505055922 51 183 0.0 0.0 0.00 0.00 0.00 52 1022.0
20260505055418 51 263 4.0 5.0 0.00 0.00 0.00 52 1021.9
20260505054915 52 239 0.0 0.0 0.00 0.00 0.00 52 1022.0
20260505054412 52 268 2.0 2.0 0.00 0.00 0.00 51 1021.7
20260505053910 50 43 0.0 0.0 0.00 0.00 0.00 62 1021.7
20260505053407 51 69 2.0 2.0 0.00 0.00 0.00 57 1021.8
20260505052903 51 341 0.0 1.0 0.00 0.00 0.00 62 1021.8
20260505052401 52 200 0.0 0.0 0.00 0.00 0.00 52 1021.7
20260505051858 52 61 0.0 0.0 0.00 0.00 0.00 56 1021.6
20260505051355 54 331 1.0 1.0 0.00 0.00 0.00 51 1021.5
20260505050853 52 338 3.0 3.0 0.00 0.00 0.00 53 1021.6
20260505050351 53 344 4.0 5.0 0.00 0.00 0.00 53 1021.6
20260505041319 54 181 3.0 6.0 0.00 0.00 0.00 50 1021.2
20260505040815 54 70 1.0 1.0 0.00 0.00 0.00 58 1021.2
20260505040313 55 185 1.0 1.0 0.00 0.00 0.00 48 1020.8
20260505035809 53 241 1.0 1.0 0.00 0.00 0.00 50 1021.1
20260505035305 53 269 0.0 0.0 0.00 0.00 0.00 55 1021.0
20260505034803 55 279 1.0 1.0 0.00 0.00 0.00 48 1020.6
20260505034259 54 146 3.0 3.0 0.00 0.00 0.00 58 1020.9
20260505033756 54 282 0.0 0.0 0.00 0.00 0.00 50 1020.6
20260505033254 56 262 0.0 0.0 0.00 0.00 0.00 48 1020.7
20260505032752 57 247 1.0 1.0 0.00 0.00 0.00 49 1020.6
20260505032247 55 281 0.0 0.0 0.00 0.00 0.00 49 1020.2
20260505031745 56 277 0.0 0.0 0.00 0.00 0.00 48 1020.2
20260505031241 57 336 3.0 5.0 0.00 0.00 0.00 49 1020.1
20260505030738 58 202 0.0 0.0 0.00 0.00 0.00 45 1019.9
20260505030234 58 86 3.0 5.0 0.00 0.00 0.00 44 1020.1
20260505025730 58 37 3.0 3.0 0.00 0.00 0.00 45 1019.8
20260505025228 57 331 0.0 0.0 0.00 0.00 0.00 46 1019.6
20260505024726 58 271 2.0 2.0 0.00 0.00 0.00 46 1019.8
20260505024223 59 235 4.0 6.0 0.00 0.00 0.00 42 1019.6
20260505023721 58 259 0.0 0.0 0.00 0.00 0.00 47 1019.5
20260505023218 58 321 4.0 5.0 0.00 0.00 0.00 46 1019.2
20260505022715 58 309 0.0 1.0 0.00 0.00 0.00 46 1019.1
20260505022212 58 252 0.0 0.0 0.00 0.00 0.00 48 1019.0
20260505021709 59 265 0.0 0.0 0.00 0.00 0.00 48 1019.0
20260505021206 60 268 0.0 0.0 0.00 0.00 0.00 47 1018.9
20260505020701 60 137 3.0 3.0 0.00 0.00 0.00 44 1018.7
20260505020157 60 223 0.0 1.0 0.00 0.00 0.00 45 1018.7
20260505015655 61 97 0.0 1.0 0.00 0.00 0.00 45 1018.5
20260505015151 62 260 0.0 0.0 0.00 0.00 0.00 46 1018.5
20260505014648 61 140 0.0 0.0 0.00 0.00 0.00 44 1018.4
20260505014145 62 246 0.0 0.0 0.00 0.00 0.00 45 1018.3
20260505013642 63 242 0.0 1.0 0.00 0.00 0.00 44 1018.3
20260505013139 64 56 2.0 7.0 0.00 0.00 0.00 42 1018.4
20260505012638 65 195 0.0 0.0 0.00 0.00 0.00 43 1018.5